Weather in Konstantinovka

Russia / Novosibirsk Oblast     55°38′12″N   78°48′12″E
temp.,
°C
wind,
m/s
gust,
m/s
humid.,
%
clouds,
%
prec.,
mm/h
press.,
hPa
HPBL,
m
25 february, thu
thu2501:00−21sw81491100 2.8 1010462
04:00−25sw6139566 0.0 1010297
07:00−27sw5129664 0.0 1012244
10:00−25sw5119694 0.0 1013372
13:00−22sw7119297 0.1 1014658
16:00−21sw71090100 0.1 10151077
19:00−23sw51094100 0.2 1017439
22:00−24sw5109599 0.0 1017406
26 february, fri
fri2601:00−25wsw51097100 0.1 1018303
04:00−25wsw5996100 0.1 1020331
07:00−27w5995100 0.1 1023328
10:00−32w479777 0.0 1027153
13:00−29wsw479354 0.0 1029327
16:00−27wsw579188 0.0 1030433
19:00−29wsw359692 0.0 103180
22:00−29sw369992 0.0 103393
27 february, sat
sat2701:00−30sw369896 0.0 1034100
04:00−31sw349896 0.0 103466
07:00−33sw339992 0.0 103533
10:00−32sw349768 0.0 1035116
13:00−28sw359468 0.0 1036263
16:00−25ssw359492 0.0 1035333
19:00−28ssw349792 0.0 103632
22:00−31ssw33987 0.0 103726
28 february, sun
sun2801:00−32s34983 0.0 103731
04:00−32s339811 0.0 103625
07:00−32se349712 0.0 103644
10:00−30se489566 0.0 1035152
13:00−23se589582 0.0 1033277
16:00−19se61089100 0.0 1030351
19:00−18ese61292100 0.0 1026345
22:00−16ese71295100 0.1 1023408
1 march, mon
mon101:00−11ese71294100 0.8 1019526
04:00−9ese71295100 1.1 1014472
07:00−6ese61195100 2.6 1010430
10:00−3se4797100 2.3 1008294
13:000wsw71298100 3.9 1007769
16:00−1w799197 0.3 1008677
19:00−5w579298 0.4 1011443
22:00−8w4894100 0.1 1012333